Overview Statistics Trail Chart Weather Telemetry Raw packets
 

This is the latest recevied weather packets stored in our database for station/object K6CEG. If no packets are shown the sender has not sent any weather packets the latest 10 day(s).

<< 43 44 45 46 47 48 49 >>
Time Temp. Humidity Pressure Rain* Wind** Luminosity Snow
1788386952 28.89° C 40% 1016.4 hPa 0 mm - 52 W/m² -
1788386651 29.44° C 39% 1016.5 hPa 0 mm - 52 W/m² -
1788386346 29.44° C 38% 1016.5 hPa 0 mm - 215 W/m² -
1788386042 30° C 37% 1016.6 hPa 0 mm - 53 W/m² -
1788385738 30° C 37% 1016.6 hPa 0 mm - 53 W/m² -
1788385437 30° C 37% 1016.6 hPa 0 mm - 55 W/m² -
1788385131 30.56° C 36% 1016.6 hPa 0 mm - 457 W/m² -
1788384828 30° C 36% 1016.8 hPa 0 mm - 406 W/m² -
1788384526 30° C 37% 1016.7 hPa 0 mm - 629 W/m² -
1788384223 30° C 38% 1016.9 hPa 0 mm - 296 W/m² -
1788383919 29.44° C 38% 1017 hPa 0 mm - 424 W/m² -
1788383614 29.44° C 37% 1017 hPa 0 mm - 501 W/m² -
1788383309 30° C 35% 1016.7 hPa 0 mm - 651 W/m² -
1788383009 30° C 37% 1016.9 hPa 0 mm - 655 W/m² -
1788382707 29.44° C 33% 1016.9 hPa 0 mm - 341 W/m² -
1788382402 28.89° C 32% 1017.2 hPa 0 mm - 386 W/m² -
1788382098 28.89° C 33% 1017.2 hPa 0 mm - 489 W/m² -
1788381792 30° C 31% 1017 hPa 0 mm - 615 W/m² -
1788381488 29.44° C 33% 1017.2 hPa 0 mm - 680 W/m² -
1788381182 29.44° C 33% 1017 hPa 0 mm - 694 W/m² -
1788380877 28.89° C 34% 1017.1 hPa 0 mm - 697 W/m² -
1788380574 28.89° C 32% 1017.2 hPa 0 mm - 696 W/m² -
1788380270 28.89° C 32% 1017.3 hPa 0 mm - 673 W/m² -
1788379969 28.89° C 34% 1017.4 hPa 0 mm - 681 W/m² -
1788379664 29.44° C 33% 1017.7 hPa 0 mm - 692 W/m² -

* Rain latest hour (hover to see other rain measurements)
** Current wind speed in m/s (hover to see current wind gust speed)